Flag for Poland Weather past 2 weeks in Gdańsk, Poland

Now
52 °F

Partly sunny.


Feels Like: 48 °F
Forecast: 48 / 57 °F
Wind: 12 mph from Northwest

Location: Gdansk-Rebiechowo

Current Time: May 26, 2015 at 8:06:50 AM

Latest Report: May 26, 2015 at 7:30 AM


Visibility: N/A

Pressure: 29.83 "Hg

Humidity: 88%

Dew point: 48 °F

Location of GdańskLocation

Historic Weather in Gdańsk — Graph

°F

Gdańsk temperature yesterday

Maximum temperature yesterday: 70 °F (at 2:00 PM)
Minimum temperature yesterday: 39 °F (at 4:00 AM)
Average temperature yesterday: 57 °F

Past Weeks' High & Low Weather Summary

 TemperatureHumidityPressure
High73 °F (May 12, 2:30 PM)100% (May 15, 3:30 AM)30.36 "Hg (May 15, 3:30 AM)
Low37 °F (May 24, 5:30 AM)24% (May 15, 5:00 PM)29.59 "Hg (May 19, 11:00 AM)
Average52 °F72%29.97 "Hg
* Reported May 11 7:00 AM — May 26 7:00 AM, Gdańsk, Weather by CustomWeather, © 2015

Note: Actual official high and low records may vary slightly from our data, if they occured in-between our weather recording intervals... More about our weather records

Advertising

Gdańsk weather history for previous 24 hours

 ConditionsComfort  
Time TempWeatherWind HumidityBarometerVisibility
7:00 AM
Tue, May 26
52 °FSunny.10 mph88%29.83 "Hg10 mi
6:30 AM52 °FSunny.10 mph88%29.83 "Hg10 mi
6:00 AM50 °FSunny.10 mph94%29.83 "Hg10 mi
5:30 AM50 °FSunny.8 mph100%29.80 "Hg10 mi
5:00 AM52 °FClear.8 mph88%29.80 "Hg10 mi
4:30 AM52 °FClear.7 mph88%29.83 "Hg10 mi
4:00 AM52 °FClear.8 mph82%29.77 "Hg10 mi
3:30 AM54 °FClear.9 mph82%29.80 "Hg10 mi
3:00 AM54 °FPassing clouds.9 mph77%29.80 "HgN/A
2:30 AM55 °FPassing clouds.8 mph77%29.80 "HgN/A
2:00 AM55 °FPassing clouds.6 mph77%29.80 "HgN/A
1:30 AM57 °FClear.1 mph82%29.80 "Hg10 mi
1:00 AM57 °FPassing clouds.5 mph82%29.80 "HgN/A
12:30 AM57 °FPassing clouds.3 mph82%29.80 "HgN/A
12:00 AM57 °FClear.1 mph88%29.80 "Hg10 mi
11:30 PM
Mon, May 25
57 °FClear.3 mph88%29.83 "Hg10 mi
11:00 PM59 °FPassing clouds.3 mph82%29.83 "HgN/A
10:30 PM61 °FPassing clouds.6 mph72%29.83 "HgN/A
10:00 PM61 °FClear.2 mph68%29.83 "Hg10 mi
9:30 PM61 °FSunny.1 mph68%29.83 "Hg10 mi
9:00 PM63 °FPassing clouds.3 mph64%29.83 "HgN/A
8:30 PM64 °FSunny.1 mph56%29.83 "Hg10 mi
8:00 PM64 °FPassing clouds.3 mph56%29.83 "HgN/A
7:30 PM64 °FPassing clouds.7 mph60%29.83 "HgN/A
7:00 PM66 °FLight rain. Clear.5 mph52%29.83 "HgN/A
6:30 PM66 °FPassing clouds.6 mph49%29.83 "HgN/A
6:00 PM68 °FPassing clouds.7 mph43%29.83 "HgN/A
5:30 PM68 °FPassing clouds.9 mph40%29.83 "HgN/A
5:00 PM68 °FPassing clouds.8 mph40%29.83 "HgN/A
4:30 PM70 °FPassing clouds.8 mph40%29.83 "HgN/A
4:00 PM70 °FPassing clouds.9 mph35%29.86 "HgN/A
3:30 PM68 °FPassing clouds.7 mph38%29.86 "HgN/A
3:00 PM70 °FPassing clouds.10 mph35%29.86 "HgN/A
2:30 PM68 °FPassing clouds.9 mph38%29.86 "HgN/A
2:00 PM70 °FPassing clouds.9 mph35%29.89 "HgN/A
1:30 PM68 °FPassing clouds.6 mph33%29.89 "HgN/A
1:00 PM68 °FPassing clouds.9 mph35%29.89 "HgN/A
12:30 PM68 °FPassing clouds.7 mph33%29.92 "HgN/A
12:00 PM68 °FPassing clouds.7 mph33%29.92 "HgN/A
11:30 AM68 °FPassing clouds.8 mph33%29.92 "HgN/A
11:00 AM66 °FPassing clouds.8 mph37%29.92 "HgN/A
10:30 AM66 °FPassing clouds.7 mph37%29.95 "HgN/A
10:00 AM64 °FPassing clouds.5 mph43%29.95 "HgN/A
9:30 AM63 °FPassing clouds.5 mph45%29.95 "HgN/A
9:00 AM59 °FPassing clouds.3 mph59%29.95 "HgN/A
8:30 AM57 °FPassing clouds.5 mph67%29.98 "HgN/A
8:00 AM54 °FSunny.2 mph77%29.98 "Hg10 mi
Weather by CustomWeather, © 2015

See weather overviewHow to use our weather pages